Regional Weather Roundup
Issued by NWS Goodland, KS

Home | Current Version | Previous Version | Text Only | Print | Product List | Glossary Off
Versions: 1 2 3 4 5 6 7 8 9 10 11 12 13 14 15 16 17 18 19 20 21 22 23 24 25 26 27 28 29 30 31 32 33 34 35 36 37 38 39 40 41 42 43 44 45 46 47 48 49 50

000
ASUS43 KGLD 210559
RWRGLD

GOODLAND FORECAST AREA HOURLY WEATHER ROUNDUP
NATIONAL WEATHER SERVICE GOODLAND KS
1100 PM MST SAT DEC 20 2014

...OFFICIAL OBSERVATIONS...

CITY           SKY/WX    TMP DP  RH WIND       PRES   REMARKS
GOODLAND KS    MOCLDY    37  28  70 SW10      29.93S
HILL CITY KS   PTCLDY    36  33  89 SW8       29.96F
IMPERIAL NEB   MOCLDY    32  25  75 SW9       29.91F
MCCOOK NEB     PTCLDY    26  24  92 W5        29.92F
AKRON CO       CLOUDY    33  21  61 SE9       29.90F
BURLINGTON CO  CLOUDY    32  27  81 W9        29.93S
LIMON CO       CLOUDY    29  21  72 CALM      29.93F
$$

...UNOFFICIAL OBSERVATIONS...

CITY           SKY/WX    TMP DP  RH WIND       PRES   REMARKS
COLBY KS       CLEAR     30  30 100 SW8       29.95R
GOVE KS          N/A     37  32  82 MISG        N/A
NORTON KS      CLEAR     32  28  86 SW8       29.93R
TRIBUNE KS     PTCLDY    28  28 100 S7        29.94F
KIT CARSON CO    N/A     31  28  86 MISG        N/A
YUMA CO          N/A     30  26  83 CALM        N/A
$$


USA.gov is the U.S. government's official web portal to all federal, state and local government web resources and services.